Regional Weather Roundup
Issued by NWS

Home | Current Version | Previous Version | Text Only | Print | Product List | Glossary On
Versions: 1 2 3 4 5 6 7 8 9 10 11 12 13 14 15 16 17 18 19 20 21 22 23 24 25 26 27 28 29 30 31 32 33 34 35 36 37 38 39 40 41 42 43 44 45 46 47 48 49 50
000
ASUS43 KTOP 011308
RWRKS

WEATHER ROUNDUP FOR KANSAS
NATIONAL WEATHER SERVICE GOODLAND KS
800 AM CDT MON SEP 01 2014

NOTE:  "FAIR" INDICATES FEW OR NO CLOUDS BELOW 12,000 FEET WITH NO
SIGNIFICANT WEATHER AND/OR OBSTRUCTIONS TO VISIBILITY.

KSZ001>006-013>018-027>032-041>047-011400-
NORTHWEST KANSAS

CITY           SKY/WX    TMP DP  RH WIND       PRES   REMARKS
GOODLAND       PTCLDY    53  50  89 W6        30.02R
HAYS           PTCLDY    61  54  77 N7        29.92R
HILL CITY      PTCLDY    58  54  86 W5        29.95R
RUSSELL        CLEAR     64  60  87 NW14      29.90R
$$

KSZ061>065-074>080-084>089-011400-
SOUTHWEST KANSAS

CITY           SKY/WX    TMP DP  RH WIND       PRES   REMARKS
DODGE CITY     CLEAR     62  59  90 N10       29.93R
ELKHART          N/A     60  51  72 NW9         N/A
GARDEN CITY    CLEAR     59  54  83 N10       29.95R
GREAT BEND     PTCLDY    63  59  88 NW6       29.93R
LIBERAL        CLEAR     64  55  72 N15       29.93R
PRATT          PTCLDY    64  57  77 E12G17    29.89S
$$

KSZ066>073-081>083-090>101-011400-
SOUTHEAST KANSAS

CITY           SKY/WX    TMP DP  RH WIND       PRES   REMARKS
CHANUTE        TSTM      65  64  97 SE14      29.92F
COFFEYVILLE    CLOUDY    68  63  84 E10       29.96R
HUTCHINSON     MOSUNNY   67  61  81 SE12      29.88R
MEDICINE LODGE   N/A     68  61  78 E17G26    29.85R
NEWTON         PTSUNNY   64  57  77 S16       29.91R
PARSONS        LGT RAIN  66  63  90 SE7       29.96S
WICHITA INTL   PTSUNNY   69  60  73 SE16      29.89R
WICHITA JABRA  CLOUDY    66  61  84 SE14      29.89R
WICHITA MCCONL CLOUDY    68  64  89 E17G24    29.89R
WINFIELD       CLOUDY    70  61  73 SE16G26   29.90S
$$

KSZ007>012-019>026-033>040-048>060-102>105-011400-
NORTHEAST KANSAS

CITY           SKY/WX    TMP DP  RH WIND       PRES   REMARKS
CONCORDIA      MOSUNNY   63  62  97 CALM      29.88R
EMPORIA        CLOUDY    64  64 100 S12       29.86S
LAWRENCE       CLOUDY   N/A N/A N/A S10       29.85R
MANHATTAN      MOSUNNY   64  63  96 W6        29.85R
OLATHE IND     CLOUDY    65  63  93 S16G23    29.86R
OLATHE EXE     CLOUDY    64  63  96 S12       29.85R
SALINA         SUNNY     64  62  93 SW5       29.88R
TOPEKA BILLARD CLOUDY    67  65  93 SW10      29.86R
TOPEKA FORBES  CLOUDY    66  64  93 S8        29.85R
$$


USA.gov is the U.S. government's official web portal to all federal, state and local government web resources and services.